Time,TemperatureF,DewpointF,PressureIn,WindDirection,WindDirectionDegrees,WindSpeedMPH,WindSpeedGustMPH,Humidity,HourlyPrecipIn,Conditions,Clouds,dailyrainin,SoftwareType,DateUTC
2013-05-19 00:10:00,63.4,51.0,29.88,SSW,207,15.0,15.0,64,0.00,,,0.00,Wunderground v.1.15,2013-05-18 22:10:00,
2013-05-19 00:15:00,63.4,51.4,29.88,SW,221,13.0,15.0,65,0.00,,,0.00,Wunderground v.1.15,2013-05-18 22:15:00,
2013-05-19 00:25:00,63.2,50.4,29.88,WSW,243,13.0,13.0,63,0.00,,,0.00,Wunderground v.1.15,2013-05-18 22:25:00,
2013-05-19 00:35:00,63.2,51.6,29.89,SW,222,13.0,18.0,66,0.00,,,0.00,Wunderground v.1.15,2013-05-18 22:35:00,
2013-05-19 00:40:00,63.2,51.6,29.89,SW,235,13.0,18.0,66,0.00,,,0.00,Wunderground v.1.15,2013-05-18 22:40:00,
2013-05-19 00:45:00,63.1,51.6,29.89,SW,222,14.0,14.0,66,0.00,,,0.00,Wunderground v.1.15,2013-05-18 22:45:00,
2013-05-19 00:55:00,63.1,52.4,29.89,SW,231,12.0,14.0,68,0.00,,,0.00,Wunderground v.1.15,2013-05-18 22:55:00,
2013-05-19 01:01:00,63.0,51.0,29.89,South,187,12.0,12.0,65,0.00,,,0.00,Wunderground v.1.15,2013-05-18 23:01:00,
2013-05-19 01:10:00,63.0,52.3,29.89,South,190,10.0,12.0,68,0.00,,,0.00,Wunderground v.1.15,2013-05-18 23:10:00,
2013-05-19 01:15:00,63.0,51.9,29.89,SW,217,10.0,11.0,67,0.00,,,0.00,Wunderground v.1.15,2013-05-18 23:15:00,
2013-05-19 01:25:00,63.0,51.5,29.89,WSW,243,11.0,15.0,66,0.00,,,0.00,Wunderground v.1.15,2013-05-18 23:25:00,
2013-05-19 01:31:00,63.0,51.9,29.89,WSW,237,12.0,15.0,67,0.00,,,0.00,Wunderground v.1.15,2013-05-18 23:31:00,
2013-05-19 01:40:00,62.9,51.0,29.89,WSW,241,12.0,15.0,65,0.00,,,0.00,Wunderground v.1.15,2013-05-18 23:40:00,
2013-05-19 01:45:00,62.9,51.4,29.89,WSW,255,13.0,13.0,66,0.00,,,0.00,Wunderground v.1.15,2013-05-18 23:45:00,
2013-05-19 01:50:00,62.9,51.4,29.89,SW,235,13.0,17.0,66,0.00,,,0.00,Wunderground v.1.15,2013-05-18 23:50:00,
2013-05-19 02:00:00,63.0,52.7,29.89,WSW,247,14.0,15.0,69,0.00,,,0.00,Wunderground v.1.15,2013-05-19 00:00:00,
2013-05-19 02:10:00,62.6,50.2,29.89,WSW,252,15.0,15.0,64,0.00,,,0.00,Wunderground v.1.15,2013-05-19 00:10:00,
2013-05-19 02:15:00,62.5,51.4,29.89,WSW,244,15.0,15.0,67,0.00,,,0.00,Wunderground v.1.15,2013-05-19 00:15:00,
2013-05-19 02:20:00,62.2,50.3,29.89,SW,221,14.0,14.0,65,0.00,,,0.00,Wunderground v.1.15,2013-05-19 00:20:00,
2013-05-19 02:31:00,62.0,50.1,29.89,WSW,244,15.0,15.0,65,0.00,,,0.00,Wunderground v.1.15,2013-05-19 00:31:00,
2013-05-19 02:40:00,62.0,50.5,29.89,WSW,252,14.0,18.0,66,0.00,,,0.00,Wunderground v.1.15,2013-05-19 00:40:00,
2013-05-19 02:45:00,62.0,51.3,29.89,SW,236,13.0,13.0,68,0.00,,,0.00,Wunderground v.1.15,2013-05-19 00:45:00,
2013-05-19 02:55:00,61.7,49.8,29.88,WSW,246,14.0,14.0,65,0.00,,,0.00,Wunderground v.1.15,2013-05-19 00:55:00,
2013-05-19 03:01:00,61.7,50.6,29.89,West,267,13.0,13.0,67,0.00,,,0.00,Wunderground v.1.15,2013-05-19 01:01:00,
2013-05-19 03:10:00,61.6,50.1,29.89,WSW,252,12.0,12.0,66,0.00,,,0.00,Wunderground v.1.15,2013-05-19 01:10:00,
2013-05-19 03:15:00,61.6,50.1,29.89,SW,235,12.0,12.0,66,0.00,,,0.00,Wunderground v.1.15,2013-05-19 01:15:00,
2013-05-19 03:25:00,61.4,49.9,29.89,SW,232,12.0,12.0,66,0.00,,,0.00,Wunderground v.1.15,2013-05-19 01:25:00,
2013-05-19 03:35:00,61.4,49.5,29.89,SW,223,12.0,12.0,65,0.00,,,0.00,Wunderground v.1.15,2013-05-19 01:35:00,
2013-05-19 03:41:00,61.5,50.0,29.89,SW,225,13.0,16.0,66,0.00,,,0.00,Wunderground v.1.15,2013-05-19 01:41:00,
2013-05-19 03:46:00,61.4,49.5,29.89,SW,229,12.0,12.0,65,0.00,,,0.00,Wunderground v.1.15,2013-05-19 01:46:00,
2013-05-19 03:55:00,61.2,49.3,29.89,WSW,243,10.0,10.0,65,0.00,,,0.00,Wunderground v.1.15,2013-05-19 01:55:00,
2013-05-19 04:10:00,61.2,50.2,29.89,WSW,252,10.0,10.0,67,0.00,,,0.00,Wunderground v.1.15,2013-05-19 02:10:00,
2013-05-19 04:15:00,61.1,49.7,29.89,WSW,246,9.0,11.0,66,0.00,,,0.00,Wunderground v.1.15,2013-05-19 02:15:00,
2013-05-19 04:25:00,61.1,49.7,29.90,WSW,255,10.0,11.0,66,0.00,,,0.00,Wunderground v.1.15,2013-05-19 02:25:00,
2013-05-19 04:35:00,60.9,49.5,29.90,WSW,249,9.0,10.0,66,0.00,,,0.00,Wunderground v.1.15,2013-05-19 02:35:00,
2013-05-19 04:40:00,60.9,49.1,29.90,West,260,9.0,12.0,65,0.00,,,0.00,Wunderground v.1.15,2013-05-19 02:40:00,
2013-05-19 04:45:00,60.9,49.5,29.90,SW,234,9.0,9.0,66,0.00,,,0.00,Wunderground v.1.15,2013-05-19 02:45:00,
2013-05-19 04:50:00,60.7,48.9,29.89,West,259,8.0,9.0,65,0.00,,,0.00,Wunderground v.1.15,2013-05-19 02:50:00,
2013-05-19 05:00:00,60.7,48.9,29.90,West,276,9.0,9.0,65,0.00,,,0.00,Wunderground v.1.15,2013-05-19 03:00:00,
2013-05-19 05:10:00,60.7,49.3,29.90,SW,226,7.0,7.0,66,0.00,,,0.00,Wunderground v.1.15,2013-05-19 03:10:00,
2013-05-19 05:20:00,60.6,49.2,29.90,SW,229,8.0,8.0,66,0.00,,,0.00,Wunderground v.1.15,2013-05-19 03:20:00,
2013-05-19 05:35:00,60.6,49.2,29.90,WSW,254,8.0,11.0,66,0.00,,,0.00,Wunderground v.1.15,2013-05-19 03:35:00,
2013-05-19 05:40:00,60.5,49.5,29.90,SW,224,9.0,11.0,67,0.00,,,0.00,Wunderground v.1.15,2013-05-19 03:40:00,
2013-05-19 05:45:00,60.5,49.9,29.90,WSW,248,8.0,10.0,68,0.00,,,0.00,Wunderground v.1.15,2013-05-19 03:45:00,
2013-05-19 05:50:00,60.5,49.9,29.90,WSW,251,8.0,10.0,68,0.00,,,0.00,Wunderground v.1.15,2013-05-19 03:50:00,
2013-05-19 06:10:00,60.6,50.4,29.91,WSW,239,8.0,11.0,69,0.00,,,0.00,Wunderground v.1.15,2013-05-19 04:10:00,
2013-05-19 06:15:00,60.6,50.4,29.91,WSW,241,9.0,11.0,69,0.00,,,0.00,Wunderground v.1.15,2013-05-19 04:15:00,
2013-05-19 06:20:00,60.6,50.4,29.91,WSW,243,9.0,12.0,69,0.00,,,0.00,Wunderground v.1.15,2013-05-19 04:20:00,
2013-05-19 06:25:00,60.6,50.0,29.91,West,260,10.0,12.0,68,0.00,,,0.00,Wunderground v.1.15,2013-05-19 04:25:00,
2013-05-19 06:35:00,60.6,49.6,29.92,WSW,238,9.0,9.0,67,0.00,,,0.00,Wunderground v.1.15,2013-05-19 04:35:00,
2013-05-19 06:40:00,60.7,50.5,29.92,SW,223,8.0,9.0,69,0.00,,,0.00,Wunderground v.1.15,2013-05-19 04:40:00,
2013-05-19 06:45:00,60.6,50.4,29.92,WSW,252,8.0,8.0,69,0.00,,,0.00,Wunderground v.1.15,2013-05-19 04:45:00,
2013-05-19 06:55:00,60.7,49.7,29.93,WSW,244,9.0,9.0,67,0.00,,,0.00,Wunderground v.1.15,2013-05-19 04:55:00,
2013-05-19 07:01:00,60.7,50.1,29.93,WSW,255,9.0,9.0,68,0.00,,,0.00,Wunderground v.1.15,2013-05-19 05:01:00,
2013-05-19 07:10:00,60.7,50.1,29.93,WNW,294,8.0,11.0,68,0.00,,,0.00,Wunderground v.1.15,2013-05-19 05:10:00,
2013-05-19 07:15:00,60.7,49.7,29.93,WSW,250,8.0,8.0,67,0.00,,,0.00,Wunderground v.1.15,2013-05-19 05:15:00,
2013-05-19 07:20:00,60.7,49.7,29.93,WSW,257,7.0,8.0,67,0.00,,,0.00,Wunderground v.1.15,2013-05-19 05:20:00,
2013-05-19 07:31:00,60.8,50.2,29.94,WSW,242,5.0,6.0,68,0.00,,,0.00,Wunderground v.1.15,2013-05-19 05:31:00,
2013-05-19 07:40:00,60.8,50.2,29.94,SW,232,6.0,6.0,68,0.00,,,0.00,Wunderground v.1.15,2013-05-19 05:40:00,
2013-05-19 07:45:00,60.9,50.3,29.94,WSW,239,6.0,7.0,68,0.00,,,0.00,Wunderground v.1.15,2013-05-19 05:45:00,
2013-05-19 07:50:00,60.9,50.3,29.95,West,266,5.0,7.0,68,0.00,,,0.00,Wunderground v.1.15,2013-05-19 05:50:00,
2013-05-19 08:10:00,61.3,50.6,29.95,SW,230,6.0,6.0,68,0.00,,,0.00,Wunderground v.1.15,2013-05-19 06:10:00,
2013-05-19 08:20:00,61.4,50.7,29.96,SW,229,6.0,8.0,68,0.00,,,0.00,Wunderground v.1.15,2013-05-19 06:20:00,
2013-05-19 08:25:00,61.4,50.7,29.96,WSW,246,6.0,8.0,68,0.00,,,0.00,Wunderground v.1.15,2013-05-19 06:25:00,
2013-05-19 08:31:00,61.5,50.4,29.96,SW,223,6.0,6.0,67,0.00,,,0.00,Wunderground v.1.15,2013-05-19 06:31:00,
2013-05-19 08:40:00,61.7,50.6,29.96,SW,227,7.0,8.0,67,0.00,,,0.00,Wunderground v.1.15,2013-05-19 06:40:00,
2013-05-19 08:45:00,61.8,50.7,29.96,SW,234,7.0,8.0,67,0.00,,,0.00,Wunderground v.1.15,2013-05-19 06:45:00,
2013-05-19 08:50:00,61.8,50.3,29.96,SW,228,6.0,8.0,66,0.00,,,0.00,Wunderground v.1.15,2013-05-19 06:50:00,
2013-05-19 09:01:00,62.1,50.2,29.96,WSW,238,4.0,5.0,65,0.00,,,0.00,Wunderground v.1.15,2013-05-19 07:01:00,
2013-05-19 09:10:00,62.6,51.1,29.97,SSW,207,4.0,6.0,66,0.00,,,0.00,Wunderground v.1.15,2013-05-19 07:10:00,
2013-05-19 09:15:00,62.5,50.2,29.97,WSW,238,5.0,6.0,64,0.00,,,0.00,Wunderground v.1.15,2013-05-19 07:15:00,
2013-05-19 09:20:00,62.8,50.4,29.98,SW,219,6.0,6.0,64,0.00,,,0.00,Wunderground v.1.15,2013-05-19 07:20:00,
2013-05-19 09:30:00,62.8,50.4,29.98,SW,236,8.0,9.0,64,0.00,,,0.00,Wunderground v.1.15,2013-05-19 07:30:00,
2013-05-19 09:40:00,62.7,49.9,29.98,WSW,237,10.0,10.0,63,0.00,,,0.00,Wunderground v.1.15,2013-05-19 07:40:00,
2013-05-19 09:45:00,62.7,52.4,29.98,SW,232,10.0,12.0,69,0.00,,,0.00,Wunderground v.1.15,2013-05-19 07:45:00,
2013-05-19 09:55:00,62.5,51.4,29.98,SW,217,11.0,14.0,67,0.00,,,0.00,Wunderground v.1.15,2013-05-19 07:55:00,
2013-05-19 10:01:00,62.6,52.3,29.98,SW,227,11.0,14.0,69,0.00,,,0.00,Wunderground v.1.15,2013-05-19 08:01:00,
2013-05-19 10:25:00,63.0,51.5,29.98,SSW,205,10.0,10.0,66,0.00,,,0.00,Wunderground v.1.15,2013-05-19 08:25:00,
2013-05-19 10:35:00,63.0,52.7,29.99,WSW,246,10.0,10.0,69,0.00,,,0.00,Wunderground v.1.15,2013-05-19 08:35:00,
2013-05-19 10:40:00,62.9,53.0,29.99,SSW,207,12.0,14.0,70,0.00,,,0.00,Wunderground v.1.15,2013-05-19 08:40:00,
2013-05-19 10:45:00,62.6,51.9,29.99,WSW,246,13.0,17.0,68,0.00,,,0.00,Wunderground v.1.15,2013-05-19 08:45:00,
2013-05-19 10:55:00,62.7,52.8,29.99,SW,234,13.0,15.0,70,0.00,,,0.00,Wunderground v.1.15,2013-05-19 08:55:00,
2013-05-19 11:05:00,62.7,52.0,30.00,SW,234,13.0,13.0,68,0.00,,,0.00,Wunderground v.1.15,2013-05-19 09:05:00,
2013-05-19 11:10:00,62.7,52.4,30.00,SSW,211,13.0,13.0,69,0.00,,,0.00,Wunderground v.1.15,2013-05-19 09:10:00,
2013-05-19 11:16:00,62.6,52.3,30.00,WSW,242,14.0,14.0,69,0.00,,,0.00,Wunderground v.1.15,2013-05-19 09:16:00,
2013-05-19 11:25:00,62.6,51.9,30.00,SW,234,14.0,15.0,68,0.00,,,0.00,Wunderground v.1.15,2013-05-19 09:25:00,
2013-05-19 11:35:00,62.7,51.6,30.00,WSW,238,13.0,20.0,67,0.00,,,0.00,Wunderground v.1.15,2013-05-19 09:35:00,
2013-05-19 11:40:00,62.7,51.2,30.00,SW,234,14.0,20.0,66,0.00,,,0.00,Wunderground v.1.15,2013-05-19 09:40:00,
2013-05-19 11:46:00,62.8,51.7,30.00,SW,236,14.0,14.0,67,0.00,,,0.00,Wunderground v.1.15,2013-05-19 09:46:00,
2013-05-19 11:55:00,62.7,50.3,30.00,SW,220,15.0,18.0,64,0.00,,,0.00,Wunderground v.1.15,2013-05-19 09:55:00,
2013-05-19 12:05:00,62.9,49.2,30.01,SW,225,14.0,14.0,61,0.00,,,0.00,Wunderground v.1.15,2013-05-19 10:05:00,
2013-05-19 12:10:00,63.1,51.1,30.01,SW,214,13.0,14.0,65,0.00,,,0.00,Wunderground v.1.15,2013-05-19 10:10:00,
2013-05-19 12:15:00,63.0,52.3,30.01,SW,221,13.0,14.0,68,0.00,,,0.00,Wunderground v.1.15,2013-05-19 10:15:00,
2013-05-19 12:20:00,63.0,51.9,30.01,SW,227,13.0,19.0,67,0.00,,,0.00,Wunderground v.1.15,2013-05-19 10:20:00,
2013-05-19 12:31:00,62.9,51.8,30.01,SW,217,13.0,14.0,67,0.00,,,0.00,Wunderground v.1.15,2013-05-19 10:31:00,
2013-05-19 12:40:00,63.3,52.2,30.01,SSW,210,12.0,14.0,67,0.00,,,0.00,Wunderground v.1.15,2013-05-19 10:40:00,
2013-05-19 12:45:00,63.3,51.7,30.01,WSW,245,11.0,13.0,66,0.00,,,0.00,Wunderground v.1.15,2013-05-19 10:45:00,
2013-05-19 12:55:00,63.3,52.6,30.01,SW,225,11.0,13.0,68,0.00,,,0.00,Wunderground v.1.15,2013-05-19 10:55:00,
2013-05-19 13:05:00,63.3,52.2,30.01,SSW,196,11.0,11.0,67,0.00,,,0.00,Wunderground v.1.15,2013-05-19 11:05:00,
2013-05-19 13:10:00,63.4,52.2,30.01,West,267,11.0,11.0,67,0.00,,,0.00,Wunderground v.1.15,2013-05-19 11:10:00,
2013-05-19 13:15:00,63.4,52.2,30.01,SW,228,11.0,12.0,67,0.00,,,0.00,Wunderground v.1.15,2013-05-19 11:15:00,
2013-05-19 13:20:00,63.5,53.1,30.01,SW,215,11.0,12.0,69,0.00,,,0.00,Wunderground v.1.15,2013-05-19 11:20:00,
2013-05-19 13:31:00,63.5,53.1,30.01,WSW,238,11.0,11.0,69,0.00,,,0.00,Wunderground v.1.15,2013-05-19 11:31:00,
2013-05-19 13:40:00,63.8,53.4,30.01,SSW,207,10.0,14.0,69,0.00,,,0.00,Wunderground v.1.15,2013-05-19 11:40:00,
2013-05-19 13:45:00,63.6,52.8,30.01,SW,223,9.0,9.0,68,0.00,,,0.00,Wunderground v.1.15,2013-05-19 11:45:00,
2013-05-19 13:50:00,63.7,52.9,30.01,SSW,208,10.0,11.0,68,0.00,,,0.00,Wunderground v.1.15,2013-05-19 11:50:00,
2013-05-19 14:05:00,63.7,52.5,30.01,SW,228,11.0,11.0,67,0.00,,,0.00,Wunderground v.1.15,2013-05-19 12:05:00,
2013-05-19 14:10:00,63.9,52.7,30.01,SW,232,10.0,11.0,67,0.00,,,0.00,Wunderground v.1.15,2013-05-19 12:10:00,
2013-05-19 14:16:00,63.9,51.1,30.01,SSW,209,10.0,10.0,63,0.00,,,0.00,Wunderground v.1.15,2013-05-19 12:16:00,
2013-05-19 14:25:00,64.1,52.1,30.02,SSW,209,11.0,17.0,65,0.00,,,0.00,Wunderground v.1.15,2013-05-19 12:25:00,
2013-05-19 14:35:00,64.0,51.1,30.02,SW,234,11.0,16.0,63,0.00,,,0.00,Wunderground v.1.15,2013-05-19 12:35:00,
2013-05-19 14:40:00,63.6,51.2,30.02,SW,221,12.0,16.0,64,0.00,,,0.00,Wunderground v.1.15,2013-05-19 12:40:00,
2013-05-19 14:46:00,63.7,51.7,30.02,SSW,213,12.0,15.0,65,0.00,,,0.00,Wunderground v.1.15,2013-05-19 12:46:00,
2013-05-19 14:55:00,63.5,51.9,30.02,SW,215,12.0,17.0,66,0.00,,,0.00,Wunderground v.1.15,2013-05-19 12:55:00,
2013-05-19 15:01:00,63.2,51.6,30.02,SW,229,12.0,14.0,66,0.00,,,0.00,Wunderground v.1.15,2013-05-19 13:01:00,
2013-05-19 15:10:00,63.4,51.0,30.02,SSW,212,13.0,14.0,64,0.00,,,0.00,Wunderground v.1.15,2013-05-19 13:10:00,
2013-05-19 15:16:00,63.4,51.0,30.02,SSW,204,13.0,14.0,64,0.00,,,0.00,Wunderground v.1.15,2013-05-19 13:16:00,
2013-05-19 15:25:00,63.9,50.6,30.02,WSW,258,11.0,12.0,62,0.00,,,0.00,Wunderground v.1.15,2013-05-19 13:25:00,
2013-05-19 15:35:00,64.0,51.6,30.02,SW,232,11.0,18.0,64,0.00,,,0.00,Wunderground v.1.15,2013-05-19 13:35:00,
2013-05-19 15:40:00,63.8,50.5,30.02,WSW,240,11.0,18.0,62,0.00,,,0.00,Wunderground v.1.15,2013-05-19 13:40:00,
2013-05-19 15:45:00,64.1,52.5,30.02,WSW,237,11.0,11.0,66,0.00,,,0.00,Wunderground v.1.15,2013-05-19 13:45:00,
2013-05-19 15:55:00,63.6,50.3,30.02,SW,231,13.0,15.0,62,0.00,,,0.00,Wunderground v.1.15,2013-05-19 13:55:00,
2013-05-19 16:10:00,63.9,50.6,30.02,SW,224,12.0,12.0,62,0.00,,,0.00,Wunderground v.1.15,2013-05-19 14:10:00,
2013-05-19 16:16:00,63.9,50.6,30.02,SSW,211,11.0,12.0,62,0.00,,,0.00,Wunderground v.1.15,2013-05-19 14:16:00,
2013-05-19 16:25:00,63.8,49.6,30.02,SW,234,11.0,12.0,60,0.00,,,0.00,Wunderground v.1.15,2013-05-19 14:25:00,
2013-05-19 16:31:00,63.9,51.1,30.02,SW,227,10.0,10.0,63,0.00,,,0.00,Wunderground v.1.15,2013-05-19 14:31:00,
2013-05-19 16:40:00,63.8,51.0,30.02,SW,225,11.0,12.0,63,0.00,,,0.00,Wunderground v.1.15,2013-05-19 14:40:00,
2013-05-19 16:50:00,63.9,50.2,30.01,SW,235,12.0,13.0,61,0.00,,,0.00,Wunderground v.1.15,2013-05-19 14:50:00,
2013-05-19 16:55:00,64.1,50.4,30.01,WSW,247,10.0,13.0,61,0.00,,,0.00,Wunderground v.1.15,2013-05-19 14:55:00,
2013-05-19 17:05:00,63.7,50.9,30.02,SW,226,11.0,11.0,63,0.00,,,0.00,Wunderground v.1.15,2013-05-19 15:05:00,
2013-05-19 17:10:00,63.7,50.0,30.02,WSW,256,11.0,11.0,61,0.00,,,0.00,Wunderground v.1.15,2013-05-19 15:10:00,
2013-05-19 17:16:00,63.6,49.9,30.02,SW,227,11.0,13.0,61,0.00,,,0.00,Wunderground v.1.15,2013-05-19 15:16:00,
2013-05-19 17:25:00,63.9,49.7,30.03,SW,236,11.0,14.0,60,0.00,,,0.00,Wunderground v.1.15,2013-05-19 15:25:00,
2013-05-19 17:35:00,63.9,50.6,30.02,WSW,241,11.0,13.0,62,0.00,,,0.00,Wunderground v.1.15,2013-05-19 15:35:00,
2013-05-19 17:40:00,64.0,49.8,30.02,SSW,196,11.0,13.0,60,0.00,,,0.00,Wunderground v.1.15,2013-05-19 15:40:00,
2013-05-19 17:46:00,64.1,49.5,30.03,South,181,10.0,10.0,59,0.00,,,0.00,Wunderground v.1.15,2013-05-19 15:46:00,
2013-05-19 17:55:00,64.4,49.8,30.03,SSW,200,9.0,10.0,59,0.00,,,0.00,Wunderground v.1.15,2013-05-19 15:55:00,
2013-05-19 18:05:00,64.3,49.2,30.03,SW,225,8.0,8.0,58,0.00,,,0.00,Wunderground v.1.15,2013-05-19 16:05:00,
2013-05-19 18:16:00,64.5,49.8,30.03,SW,236,8.0,8.0,59,0.00,,,0.00,Wunderground v.1.15,2013-05-19 16:16:00,
2013-05-19 18:25:00,64.3,49.2,30.03,SW,221,8.0,8.0,58,0.00,,,0.00,Wunderground v.1.15,2013-05-19 16:25:00,
2013-05-19 18:35:00,64.5,49.4,30.03,SW,223,8.0,8.0,58,0.00,,,0.00,Wunderground v.1.15,2013-05-19 16:35:00,
2013-05-19 18:40:00,64.4,48.8,30.02,SW,217,7.0,8.0,57,0.00,,,0.00,Wunderground v.1.15,2013-05-19 16:40:00,
2013-05-19 18:45:00,64.5,49.8,30.02,SW,236,7.0,7.0,59,0.00,,,0.00,Wunderground v.1.15,2013-05-19 16:45:00,
2013-05-19 18:50:00,64.3,49.2,30.02,SSW,205,6.0,7.0,58,0.00,,,0.00,Wunderground v.1.15,2013-05-19 16:50:00,
2013-05-19 19:01:00,63.7,48.6,30.02,SW,225,7.0,8.0,58,0.00,,,0.00,Wunderground v.1.15,2013-05-19 17:01:00,
2013-05-19 19:10:00,63.5,47.5,30.02,SW,227,8.0,8.0,56,0.00,,,0.00,Wunderground v.1.15,2013-05-19 17:10:00,
2013-05-19 19:16:00,63.5,48.9,30.02,SW,225,7.0,7.0,59,0.00,,,0.00,Wunderground v.1.15,2013-05-19 17:16:00,
2013-05-19 19:25:00,63.8,48.3,30.02,SSW,200,6.0,10.0,57,0.00,,,0.00,Wunderground v.1.15,2013-05-19 17:25:00,
2013-05-19 19:35:00,63.6,47.6,30.02,SSW,205,7.0,7.0,56,0.00,,,0.00,Wunderground v.1.15,2013-05-19 17:35:00,
2013-05-19 19:40:00,63.6,47.1,30.02,WSW,240,8.0,9.0,55,0.00,,,0.00,Wunderground v.1.15,2013-05-19 17:40:00,
2013-05-19 19:45:00,63.9,48.8,30.02,SW,225,8.0,8.0,58,0.00,,,0.00,Wunderground v.1.15,2013-05-19 17:45:00,
2013-05-19 19:55:00,63.6,48.1,30.03,SSW,212,7.0,7.0,57,0.00,,,0.00,Wunderground v.1.15,2013-05-19 17:55:00,
2013-05-19 20:05:00,63.7,48.6,30.03,SW,224,5.0,6.0,58,0.00,,,0.00,Wunderground v.1.15,2013-05-19 18:05:00,
2013-05-19 20:10:00,63.6,48.1,30.03,SW,215,5.0,6.0,57,0.00,,,0.00,Wunderground v.1.15,2013-05-19 18:10:00,
2013-05-19 20:20:00,63.2,49.1,30.03,WSW,248,5.0,8.0,60,0.00,,,0.00,Wunderground v.1.15,2013-05-19 18:20:00,
2013-05-19 20:35:00,62.9,50.1,30.03,SSW,192,5.0,5.0,63,0.00,,,0.00,Wunderground v.1.15,2013-05-19 18:35:00,
2013-05-19 20:40:00,62.8,50.0,30.03,SSW,201,5.0,5.0,63,0.00,,,0.00,Wunderground v.1.15,2013-05-19 18:40:00,
2013-05-19 20:45:00,62.8,50.4,30.03,South,188,4.0,6.0,64,0.00,,,0.00,Wunderground v.1.15,2013-05-19 18:45:00,
2013-05-19 20:55:00,62.6,49.8,30.04,South,186,4.0,4.0,63,0.00,,,0.00,Wunderground v.1.15,2013-05-19 18:55:00,
2013-05-19 21:05:00,62.7,50.3,30.04,SSW,198,5.0,7.0,64,0.00,,,0.00,Wunderground v.1.15,2013-05-19 19:05:00,
2013-05-19 21:10:00,62.7,50.3,30.04,South,178,4.0,7.0,64,0.00,,,0.00,Wunderground v.1.15,2013-05-19 19:10:00,
2013-05-19 21:15:00,62.6,50.2,30.04,South,184,4.0,4.0,64,0.00,,,0.00,Wunderground v.1.15,2013-05-19 19:15:00,
2013-05-19 21:20:00,62.6,49.8,30.04,SSW,192,4.0,6.0,63,0.00,,,0.00,Wunderground v.1.15,2013-05-19 19:20:00,
2013-05-19 21:31:00,62.6,50.2,30.04,SW,217,3.0,4.0,64,0.00,,,0.00,Wunderground v.1.15,2013-05-19 19:31:00,
2013-05-19 21:40:00,62.6,50.7,30.04,South,172,4.0,8.0,65,0.00,,,0.00,Wunderground v.1.15,2013-05-19 19:40:00,
2013-05-19 21:46:00,62.6,51.5,30.04,SSW,207,5.0,5.0,67,0.00,,,0.00,Wunderground v.1.15,2013-05-19 19:46:00,
2013-05-19 21:55:00,62.5,51.4,30.04,SW,219,5.0,10.0,67,0.00,,,0.00,Wunderground v.1.15,2013-05-19 19:55:00,
2013-05-19 22:10:00,62.4,50.9,30.05,SSW,213,5.0,8.0,66,0.00,,,0.00,Wunderground v.1.15,2013-05-19 20:10:00,
2013-05-19 22:15:00,62.3,50.8,30.05,SSW,202,5.0,8.0,66,0.00,,,0.00,Wunderground v.1.15,2013-05-19 20:15:00,
2013-05-19 22:25:00,62.2,49.9,30.06,SSW,206,6.0,6.0,64,0.00,,,0.00,Wunderground v.1.15,2013-05-19 20:25:00,
2013-05-19 22:35:00,62.2,49.4,30.05,SSW,213,5.0,5.0,63,0.00,,,0.00,Wunderground v.1.15,2013-05-19 20:35:00,
2013-05-19 22:40:00,62.2,49.4,30.05,SW,220,5.0,5.0,63,0.00,,,0.00,Wunderground v.1.15,2013-05-19 20:40:00,
2013-05-19 22:45:00,62.3,50.4,30.05,SW,225,5.0,6.0,65,0.00,,,0.00,Wunderground v.1.15,2013-05-19 20:45:00,
2013-05-19 22:50:00,62.3,50.4,30.05,SSW,212,4.0,6.0,65,0.00,,,0.00,Wunderground v.1.15,2013-05-19 20:50:00,
2013-05-19 23:01:00,62.2,49.0,30.05,SSW,212,5.0,5.0,62,0.00,,,0.00,Wunderground v.1.15,2013-05-19 21:01:00,
2013-05-19 23:10:00,62.2,49.4,30.05,SW,229,5.0,6.0,63,0.00,,,0.00,Wunderground v.1.15,2013-05-19 21:10:00,
2013-05-19 23:15:00,62.2,49.4,30.05,SW,235,5.0,6.0,63,0.00,,,0.00,Wunderground v.1.15,2013-05-19 21:15:00,
2013-05-19 23:25:00,62.2,50.3,30.05,SW,223,5.0,5.0,65,0.00,,,0.00,Wunderground v.1.15,2013-05-19 21:25:00,
2013-05-19 23:35:00,62.0,49.7,30.05,SW,229,3.0,3.0,64,0.00,,,0.00,Wunderground v.1.15,2013-05-19 21:35:00,
2013-05-19 23:40:00,61.9,50.0,30.05,SW,229,3.0,3.0,65,0.00,,,0.00,Wunderground v.1.15,2013-05-19 21:40:00,
2013-05-19 23:45:00,61.7,49.4,30.05,SW,229,3.0,3.0,64,0.00,,,0.00,Wunderground v.1.15,2013-05-19 21:45:00,
2013-05-19 23:55:00,60.3,48.1,30.05,WNW,297,2.0,4.0,64,0.00,,,0.00,Wunderground v.1.15,2013-05-19 21:55:00,